Location: Clanezzo
(45.7500°N, 9.6000°E)
Time: 00:30:56
(UTC+00:00)

USA 308 - Pass Details

Date: 28 September 2021
Orbit: 566 x 573 km, 54.0° (Epoch: 23 September)

Event Time Altitude Azimuth Distance (km) Brightness Sun altitude
Rises 17:46:45 0° 300° (WNW) 2,770 7.7 -7.7°
Reaches altitude 10° 17:49:11 10° 310° (NW) 1,873 6.5 -8.1°
Maximum altitude 17:53:04 33° 16° (NNE) 970 4.0 -8.8°
Enters shadow 17:56:39 12° 79° (E) 1,776 4.8 -9.4°
